Weather History for KGVT - January, 2013

Change the Weather History Date:

Monday, January 14, 2013

  Actual Average (WUND) Record (WUND)
Temperature  
Mean Temperature 35 °F -  
Max Temperature 42 °F - - (-1)
Min Temperature 28 °F - - (-1)
Degree Days  
Heating Degree Days 30    
Moisture  
Dew Point 24 °F    
Average Humidity 67    
Maximum Humidity 81    
Minimum Humidity 53    
Precipitation  
Precipitation 0.00 in - - ()
Sea Level Pressure  
Sea Level Pressure 30.27 in    
Wind  
Wind Speed 8 mph (NNE)    
Max Wind Speed 13 mph    
Max Gust Speed 21 mph    
Visibility 10 miles    
Events Thunderstorm    
Averages and records for this station are not official NWS values.
T = Trace of Precipitation, MM = Missing Value Source: NWS Daily Summary

Daily Weather History Graph

Daily Weather History Graph

Search for Another Location

Airport or City:

Trip Planner

Search our weather history database for the weather conditions in past years. The results will help you decide how hot, cold, wet, or windy it might be!

Date:

Astronomy

Jan. 14, 2013 Rise Set
Actual Time 7:27 AM CST 5:39 PM CST
Civil Twilight 7:00 AM CST 6:06 PM CST
Nautical Twilight 6:30 AM CST 6:36 PM CST
Astronomical Twilight 6:00 AM CST 7:06 PM CST
Moon 9:14 AM CST (1/14) 9:12 PM CST (1/14)
Length of Visible Light 11h 05m
Length of Day
10h 12m
Waxing Crescent, 11% of the Moon is Illuminated
Jan 14
Waxing Crescent
Jan 18
First Quarter
Jan 26
Full
Feb 3
Last Quarter
Feb 10
New

Hourly Weather History & Observations

Time (CST) Temp. Windchill Dew Point Humidity Pressure Visibility Wind Dir Wind Speed Gust Speed Precip Events Conditions
12:15 AM 30.2 °F 21.3 °F 21.2 °F 69% 30.28 in 10.0 mi North 10.4 mph 17.3 mph N/A   Clear
12:35 AM 30.2 °F 21.3 °F 21.2 °F 69% 30.29 in 10.0 mi North 10.4 mph - N/A   Clear
12:55 AM 30.2 °F 22.6 °F 21.2 °F 69% 30.27 in 10.0 mi North 8.1 mph 16.1 mph N/A   Clear
1:15 AM 28.4 °F 18.5 °F 21.2 °F 74% 30.26 in 10.0 mi North 11.5 mph - N/A   Clear
1:35 AM 28.4 °F 18.5 °F 21.2 °F 74% 30.25 in 10.0 mi North 11.5 mph 17.3 mph N/A   Clear
1:55 AM 28.4 °F 18.5 °F 21.2 °F 74% 30.25 in 10.0 mi NNE 11.5 mph 17.3 mph N/A   Clear
2:35 AM 28.4 °F 21.2 °F 21.2 °F 74% 30.25 in 10.0 mi North 6.9 mph - N/A   Clear
2:55 AM 28.4 °F 20.4 °F 21.2 °F 74% 30.27 in 10.0 mi North 8.1 mph - N/A   Clear
3:15 AM 28.4 °F 20.4 °F 21.2 °F 74% 30.27 in 10.0 mi North 8.1 mph - N/A   Clear
3:35 AM 28.4 °F 19.7 °F 21.2 °F 74% 30.29 in 10.0 mi North 9.2 mph - N/A   Clear
3:55 AM 28.4 °F 19.1 °F 21.2 °F 74% 30.29 in 10.0 mi North 10.4 mph - N/A   Clear
4:15 AM 28.4 °F 20.4 °F 21.2 °F 74% 30.29 in 10.0 mi North 8.1 mph - N/A   Scattered Clouds
4:35 AM 28.4 °F 22.2 °F 21.2 °F 74% 30.29 in 10.0 mi North 5.8 mph - N/A   Mostly Cloudy
4:55 AM 28.4 °F 20.4 °F 21.2 °F 74% 30.29 in 10.0 mi North 8.1 mph - N/A   Overcast
5:35 AM 28.4 °F 19.1 °F 21.2 °F 74% 30.29 in 10.0 mi North 10.4 mph - N/A   Overcast
6:15 AM 30.2 °F 21.3 °F 21.2 °F 69% 30.32 in 10.0 mi North 10.4 mph - N/A   Overcast
6:35 AM 30.2 °F 21.9 °F 21.2 °F 69% 30.31 in 10.0 mi North 9.2 mph - N/A   Overcast
6:55 AM 30.2 °F 24.3 °F 21.2 °F 69% 30.32 in 10.0 mi North 5.8 mph - N/A   Overcast
7:15 AM 30.2 °F 22.6 °F 21.2 °F 69% 30.33 in 10.0 mi NNE 8.1 mph - N/A   Overcast
7:35 AM 30.2 °F 22.6 °F 21.2 °F 69% 30.36 in 10.0 mi North 8.1 mph - N/A   Overcast
7:55 AM 30.2 °F 23.4 °F 21.2 °F 69% 30.36 in 10.0 mi North 6.9 mph - N/A   Overcast
8:15 AM 30.2 °F 22.6 °F 21.2 °F 69% 30.36 in 10.0 mi North 8.1 mph - N/A Thunderstorm Overcast
8:35 AM 30.2 °F 21.9 °F 21.2 °F 69% 30.36 in 10.0 mi North 9.2 mph - N/A   Overcast
8:55 AM 30.2 °F 21.9 °F 21.2 °F 69% 30.35 in 10.0 mi NNE 9.2 mph - N/A   Overcast
9:15 AM 32.0 °F 23.0 °F 21.2 °F 64% 30.35 in 10.0 mi North 11.5 mph - N/A   Overcast
9:35 AM 32.0 °F 24.2 °F 21.2 °F 64% 30.35 in 10.0 mi North 9.2 mph - N/A   Overcast
9:55 AM 32.0 °F 24.2 °F 21.2 °F 64% 30.34 in 10.0 mi NNE 9.2 mph - N/A   Mostly Cloudy
10:15 AM 32.0 °F 22.5 °F 21.2 °F 64% 30.33 in 10.0 mi North 12.7 mph 18.4 mph N/A   Mostly Cloudy
10:35 AM 33.8 °F 25.3 °F 21.2 °F 60% 30.33 in 10.0 mi NE 11.5 mph 20.7 mph N/A   Scattered Clouds
10:55 AM 33.8 °F 25.3 °F 21.2 °F 60% 30.33 in 10.0 mi NNE 11.5 mph 16.1 mph N/A   Clear
11:15 AM 35.6 °F 28.0 °F 23.0 °F 60% 30.32 in 10.0 mi North 10.4 mph 17.3 mph N/A   Clear
11:35 AM 35.6 °F 27.1 °F 23.0 °F 60% 30.30 in 10.0 mi NNE 12.7 mph 16.1 mph N/A   Clear
11:55 AM 37.4 °F 30.8 °F 23.0 °F 56% 30.28 in 10.0 mi NNE 9.2 mph 17.3 mph N/A   Clear
12:15 PM 37.4 °F 30.8 °F 23.0 °F 56% 30.27 in 10.0 mi North 9.2 mph 16.1 mph N/A   Clear
12:35 PM 37.4 °F 30.3 °F 23.0 °F 56% 30.27 in 10.0 mi NNE 10.4 mph 17.3 mph N/A   Clear
1:15 PM 41.0 °F 34.3 °F 24.8 °F 53% 30.25 in 10.0 mi NNE 11.5 mph 18.4 mph N/A   Clear
1:35 PM 41.0 °F 35.8 °F 24.8 °F 53% 30.24 in 10.0 mi NNE 8.1 mph - N/A   Clear
1:55 PM 41.0 °F 34.7 °F 26.6 °F 57% 30.24 in 10.0 mi NE 10.4 mph - N/A   Clear
2:15 PM 42.8 °F 37.5 °F 26.6 °F 53% 30.23 in 10.0 mi NNE 9.2 mph - N/A   Clear
2:35 PM 42.8 °F 36.6 °F 26.6 °F 53% 30.24 in 10.0 mi NNE 11.5 mph - N/A   Clear
2:55 PM 42.8 °F 37.0 °F 26.6 °F 53% 30.24 in 10.0 mi NE 10.4 mph - N/A   Clear
3:35 PM 42.8 °F 38.6 °F 26.6 °F 53% 30.24 in 10.0 mi NE 6.9 mph - N/A   Clear
3:55 PM 42.8 °F 38.0 °F 26.6 °F 53% 30.24 in 10.0 mi NE 8.1 mph - N/A   Clear
4:15 PM 42.8 °F 37.5 °F 26.6 °F 53% 30.24 in 10.0 mi NE 9.2 mph - N/A   Clear
4:35 PM 42.8 °F 37.0 °F 26.6 °F 53% 30.24 in 10.0 mi NE 10.4 mph - N/A   Clear
4:55 PM 42.8 °F 39.3 °F 26.6 °F 53% 30.24 in 10.0 mi NE 5.8 mph - N/A   Clear
5:15 PM 42.8 °F 38.6 °F 26.6 °F 53% 30.24 in 10.0 mi NE 6.9 mph - N/A   Clear
5:35 PM 41.0 °F 39.0 °F 26.6 °F 57% 30.24 in 10.0 mi NNE 3.5 mph - N/A   Clear
5:55 PM 39.2 °F - 26.6 °F 61% 30.24 in 10.0 mi Calm Calm - N/A   Clear
6:15 PM 37.4 °F - 26.6 °F 65% 30.24 in 10.0 mi Calm Calm - N/A   Clear
6:35 PM 37.4 °F - 28.4 °F 70% 30.25 in 10.0 mi Calm Calm - N/A   Clear
7:15 PM 37.4 °F - 26.6 °F 65% 30.24 in 10.0 mi Calm Calm - N/A   Clear
7:35 PM 33.8 °F - 28.4 °F 81% 30.24 in 10.0 mi Calm Calm - N/A   Clear
7:55 PM 33.8 °F - 28.4 °F 81% 30.24 in 10.0 mi Calm Calm - N/A   Clear
8:15 PM 33.8 °F - 28.4 °F 81% 30.24 in 10.0 mi Calm Calm - N/A   Clear
8:35 PM 33.8 °F 30.8 °F 28.4 °F 81% 30.24 in 10.0 mi North 3.5 mph - N/A   Clear
8:55 PM 32.0 °F 27.5 °F 26.6 °F 80% 30.24 in 10.0 mi North 4.6 mph - N/A   Clear
9:15 PM 32.0 °F 27.5 °F 26.6 °F 80% 30.24 in 10.0 mi North 4.6 mph - N/A   Clear
9:35 PM 32.0 °F - 26.6 °F 80% 30.24 in 10.0 mi Calm Calm - N/A   Clear
9:55 PM 32.0 °F - 26.6 °F 80% 30.24 in 10.0 mi Calm Calm - N/A   Clear
10:15 PM 32.0 °F 27.5 °F 24.8 °F 75% 30.24 in 10.0 mi North 4.6 mph - N/A   Clear
10:35 PM 32.0 °F 27.5 °F 26.6 °F 80% 30.24 in 10.0 mi North 4.6 mph - N/A   Clear
10:55 PM 32.0 °F 28.7 °F 26.6 °F 80% 30.24 in 10.0 mi North 3.5 mph - N/A   Clear
11:15 PM 32.0 °F - 26.6 °F 80% 30.23 in 10.0 mi Calm Calm - N/A   Clear
11:35 PM 32.0 °F 28.7 °F 26.6 °F 80% 30.22 in 10.0 mi NNE 3.5 mph - N/A   Clear
11:55 PM 32.0 °F 27.5 °F 24.8 °F 75% 30.22 in 10.0 mi NNE 4.6 mph - N/A   Clear